Barter Island, AK

4:11 PM AKDT on October 19, 2017 (GMT -0800)
Barter Island LRRS

Weather History for PABA - February, 2014

Change the Weather History Date:

Monday, February 10, 2014

  Actual Average Record
Temperature  
Mean Temperature -8 °F -  
Max Temperature 9 °F -5 °F 10 °F (2012)
Min Temperature -17 °F -17 °F -41 °F (1998)
Degree Days  
Heating Degree Days 73    
Moisture  
Dew Point -14 °F    
Average Humidity 81    
Maximum Humidity 92    
Minimum Humidity 77    
Precipitation  
Precipitation 0.00 in - - ()
Sea Level Pressure  
Sea Level Pressure 30.48 in    
Wind  
Wind Speed 11 mph (WSW)    
Max Wind Speed 22 mph    
Max Gust Speed -    
Visibility 8 miles    
Events Snow    
Averages and records for this station are not official NWS values.
T = Trace of Precipitation, MM = Missing Value Source: NWS Daily Summary

Daily Weather History Graph

Daily Weather History Graph

Search for Another Location

Airport or City:

Trip Planner

Search our weather history database for the weather conditions in past years. The results will help you decide how hot, cold, wet, or windy it might be!

Date:

Astronomy

Feb. 10, 2014 Rise Set
Actual Time 9:32 AM AKST 4:06 PM AKST
Civil Twilight 8:18 AM AKST 5:19 PM AKST
Nautical Twilight 7:04 AM AKST 6:34 PM AKST
Astronomical Twilight 5:54 AM AKST 7:45 PM AKST
Moon 11:04 AM AKST (2/10) 8:11 AM AKST (2/10)
Length of Visible Light 9h 01m
Length of Day
6h 33m
Waxing Gibbous, 85% of the Moon is Illuminated
Feb 10
Waxing Gibbous
Feb 14
Full
Feb 22
Last Quarter
Feb 28
New
Mar 8
First Quarter

Hourly Weather History & Observations

Time (AKST) Temp. Windchill Dew Point Humidity Pressure Visibility Wind Dir Wind Speed Gust Speed Precip Events Conditions
12:01 AM -11.0 °F -31.8 °F -15.0 °F 83% 30.76 in 9.0 mi West 12.7 mph - 0.00 in Snow Light Snow
12:52 AM -9.4 °F -30.6 °F -14.8 °F 77% 30.75 in 8.0 mi West 13.8 mph - 0.00 in Snow Light Snow
1:01 AM -9.9 °F -31.3 °F -14.1 °F 82% 30.75 in 9.0 mi WNW 13.8 mph - 0.00 in Snow Light Snow
1:29 AM -9.4 °F -30.6 °F -13.0 °F 84% 30.76 in 1.8 mi WNW 13.8 mph - 0.00 in Snow Light Snow
1:41 AM -7.6 °F -29.1 °F -11.2 °F 84% 30.75 in 1.0 mi WNW 15.0 mph - 0.00 in Snow Light Snow
1:58 AM -9.4 °F -29.8 °F -13.0 °F 84% 30.74 in 1.5 mi West 12.7 mph - 0.00 in Snow Light Snow
2:01 AM -9.0 °F -29.3 °F -13.0 °F 83% 30.74 in 1.8 mi West 12.7 mph - 0.00 in Snow Light Snow
2:08 AM -9.4 °F -28.9 °F -13.0 °F 84% 30.73 in 2.5 mi West 11.5 mph - 0.00 in Snow Light Snow
2:15 AM -9.4 °F -29.8 °F -14.8 °F 77% 30.73 in 4.0 mi West 12.7 mph - 0.00 in Snow Light Snow
2:32 AM -11.2 °F -32.1 °F -16.6 °F 77% 30.73 in 9.0 mi West 12.7 mph - 0.00 in   Scattered Clouds
2:56 AM -11.2 °F -31.1 °F -16.6 °F 77% 30.72 in 10.0 mi West 11.5 mph - 0.00 in   Mostly Cloudy
3:01 AM -11.2 °F -30.1 °F -16.6 °F 77% 30.72 in 10.0 mi West 10.4 mph - 0.00 in   Mostly Cloudy
3:07 AM -11.9 °F -31.0 °F -17.0 °F 78% 30.72 in 10.0 mi West 10.4 mph - 0.00 in   Overcast
4:01 AM -14.8 °F -30.8 °F -20.2 °F 77% 30.69 in 10.0 mi WSW 6.9 mph - N/A   Scattered Clouds
5:01 AM -16.1 °F -37.2 °F -20.9 °F 79% 30.65 in 10.0 mi WSW 11.5 mph - N/A   Clear
6:01 AM -17.0 °F -31.7 °F -22.0 °F 78% 30.62 in 10.0 mi WSW 5.8 mph - N/A   Clear
7:01 AM -16.1 °F -35.0 °F -20.9 °F 79% 30.58 in 10.0 mi WSW 9.2 mph - N/A   Clear
8:01 AM -16.1 °F -32.3 °F -20.9 °F 79% 30.55 in 10.0 mi SW 6.9 mph - N/A   Clear
9:01 AM -16.1 °F -30.6 °F -20.0 °F 82% 30.51 in 9.0 mi SW 5.8 mph - N/A   Clear
10:01 AM -15.0 °F -31.0 °F -18.9 °F 82% 30.47 in 10.0 mi SSW 6.9 mph - N/A   Clear
11:01 AM -13.0 °F -27.0 °F -18.0 °F 78% 30.43 in 10.0 mi SSW 5.8 mph - N/A   Clear
11:10 AM -13.0 °F -25.1 °F -18.4 °F 77% 30.43 in 0.8 mi SSW 4.6 mph - 0.00 in Snow Light Snow
11:18 AM -13.0 °F -22.7 °F -18.4 °F 77% 30.42 in 9.0 mi SW 3.5 mph - 0.00 in   Clear
12:01 PM -11.0 °F -22.8 °F -16.1 °F 78% 30.38 in 10.0 mi South 4.6 mph - 0.00 in   Partly Cloudy
1:01 PM -9.9 °F -21.5 °F -15.0 °F 78% 30.33 in 10.0 mi SSE 4.6 mph - N/A   Scattered Clouds
2:01 PM -9.0 °F -20.4 °F -14.1 °F 79% 30.28 in 10.0 mi SSE 4.6 mph - N/A   Partly Cloudy
3:01 PM -8.0 °F -26.1 °F -13.0 °F 79% 30.22 in 10.0 mi SSE 10.4 mph - N/A   Overcast
4:01 PM -7.1 °F -19.9 °F -11.0 °F 83% 30.19 in 10.0 mi SE 5.8 mph - N/A   Overcast
5:01 PM -6.0 °F -20.1 °F -9.9 °F 83% 30.16 in 10.0 mi SE 6.9 mph - N/A   Overcast
6:01 PM -6.0 °F -21.5 °F -11.0 °F 79% 30.12 in 10.0 mi ESE 8.1 mph - N/A   Overcast
7:01 PM -5.1 °F -21.5 °F -9.9 °F 80% 30.09 in 10.0 mi ESE 9.2 mph - N/A   Overcast
8:01 PM -4.0 °F -19.0 °F -8.0 °F 83% 30.07 in 10.0 mi South 8.1 mph - N/A   Overcast
9:01 PM -2.0 °F -13.9 °F -6.0 °F 83% 30.04 in 6.0 mi West 5.8 mph - 0.00 in Snow Light Snow
10:01 PM 1.0 °F -12.9 °F -2.0 °F 87% 30.02 in 6.0 mi West 8.1 mph - 0.00 in Snow Light Snow
11:01 PM 9.0 °F -11.0 °F 7.0 °F 92% 30.00 in 5.0 mi West 21.9 mph - 0.00 in Snow Light Snow